Voltar ao catálogo

HULIANWANG DIGUI-150

AtivoComunicaçõesLEO
NORAD 67526·PAYLOAD·🇨🇳 China

Lançado Jan 19, 2026 de Wenchang Space Launch Site

Loading…

Próximas Passagens (próximas 24 horas)

TLE

AtualizadoSource: Space-Track

Época: Sep 14, 2026, 19:21 UTC

1 67526U 26013E   26257.80626244 -.00000105  00000-0  41242-4 0  9996
2 67526  50.0059  34.0654 0000858  85.6644 274.4326 13.29328112 31995

Acompanhe HULIANWANG DIGUI-150 em tempo real com AllMySat

Download on the App Store